Year,Month,Day,Hour,Minute,Value (Times are PST for temperature in C)
2015,05,03,00,00,7.40
2015,05,03,00,01,7.40
2015,05,03,00,02,7.40
2015,05,03,00,03,7.40
2015,05,03,00,04,7.40
2015,05,03,00,05,7.40
2015,05,03,00,06,7.40
2015,05,03,00,07,7.40
2015,05,03,00,08,7.40
2015,05,03,00,09,7.40
2015,05,03,00,10,7.40
2015,05,03,00,11,7.30
2015,05,03,00,12,7.30
2015,05,03,00,13,7.30
2015,05,03,00,14,7.30
2015,05,03,00,15,7.30
2015,05,03,00,16,7.30
2015,05,03,00,17,7.30
2015,05,03,00,18,7.30
2015,05,03,00,19,7.30
2015,05,03,00,20,7.30
2015,05,03,00,21,7.30
2015,05,03,00,22,7.30
2015,05,03,00,23,7.30
2015,05,03,00,24,7.30
2015,05,03,00,25,7.30
2015,05,03,00,26,7.30
2015,05,03,00,27,7.30
2015,05,03,00,28,7.30
2015,05,03,00,29,7.30
2015,05,03,00,30,7.30
2015,05,03,00,31,7.30
2015,05,03,00,32,7.30
2015,05,03,00,33,7.30
2015,05,03,00,34,7.30
2015,05,03,00,35,7.30
2015,05,03,00,36,7.30
2015,05,03,00,37,7.30
2015,05,03,00,38,7.30
2015,05,03,00,39,7.30
2015,05,03,00,40,7.20
2015,05,03,00,41,7.20
2015,05,03,00,42,7.20
2015,05,03,00,43,7.20
2015,05,03,00,44,7.10
2015,05,03,00,45,7.10
2015,05,03,00,46,7.10
2015,05,03,00,47,7.00
2015,05,03,00,48,7.00
2015,05,03,00,49,7.00
2015,05,03,00,50,6.90
2015,05,03,00,51,6.90
2015,05,03,00,52,6.90
2015,05,03,00,53,6.90
2015,05,03,00,54,6.90
2015,05,03,00,55,6.80
2015,05,03,00,56,6.80
2015,05,03,00,57,6.80
2015,05,03,00,58,6.80
2015,05,03,00,59,6.80
2015,05,03,01,00,6.80
2015,05,03,01,01,6.80
2015,05,03,01,02,6.80
2015,05,03,01,03,6.80
2015,05,03,01,04,6.80
2015,05,03,01,05,6.80
2015,05,03,01,06,6.80
2015,05,03,01,07,6.80
2015,05,03,01,08,6.70
2015,05,03,01,09,6.70
2015,05,03,01,10,6.70
2015,05,03,01,11,6.70
2015,05,03,01,12,6.70
2015,05,03,01,13,6.70
2015,05,03,01,14,6.60
2015,05,03,01,15,6.60
2015,05,03,01,16,6.60
2015,05,03,01,17,6.60
2015,05,03,01,18,6.50
2015,05,03,01,19,6.50
2015,05,03,01,20,6.50
2015,05,03,01,21,6.40
2015,05,03,01,22,6.40
2015,05,03,01,23,6.40
2015,05,03,01,24,6.40
2015,05,03,01,25,6.40
2015,05,03,01,26,6.30
2015,05,03,01,27,6.30
2015,05,03,01,28,6.30
2015,05,03,01,29,6.30
2015,05,03,01,30,6.30
2015,05,03,01,31,6.30
2015,05,03,01,32,6.30
2015,05,03,01,33,6.30
2015,05,03,01,34,6.20
2015,05,03,01,35,6.20
2015,05,03,01,36,6.20
2015,05,03,01,37,6.20
2015,05,03,01,38,6.20
2015,05,03,01,39,6.20
2015,05,03,01,40,6.20
2015,05,03,01,41,6.20
2015,05,03,01,42,6.20
2015,05,03,01,43,6.20
2015,05,03,01,44,6.20
2015,05,03,01,45,6.20
2015,05,03,01,46,6.20
2015,05,03,01,47,6.20
2015,05,03,01,48,6.20
2015,05,03,01,49,6.20
2015,05,03,01,50,6.20
2015,05,03,01,51,6.20
2015,05,03,01,52,6.10
2015,05,03,01,53,6.10
2015,05,03,01,54,6.10
2015,05,03,01,55,6.10
2015,05,03,01,56,6.10
2015,05,03,01,57,6.10
2015,05,03,01,58,6.00
2015,05,03,01,59,6.00
2015,05,03,02,00,6.00
2015,05,03,02,01,5.90
2015,05,03,02,02,5.90
2015,05,03,02,03,5.90
2015,05,03,02,04,5.90
2015,05,03,02,05,5.80
2015,05,03,02,06,5.80
2015,05,03,02,07,5.80
2015,05,03,02,08,5.80
2015,05,03,02,09,5.70
2015,05,03,02,10,5.70
2015,05,03,02,11,5.70
2015,05,03,02,12,5.70
2015,05,03,02,13,5.70
2015,05,03,02,14,5.60
2015,05,03,02,15,5.60
2015,05,03,02,16,5.60
2015,05,03,02,17,5.50
2015,05,03,02,18,5.50
2015,05,03,02,19,5.50
2015,05,03,02,20,5.40
2015,05,03,02,21,5.40
2015,05,03,02,22,5.40
2015,05,03,02,23,5.30
2015,05,03,02,24,5.30
2015,05,03,02,25,5.30
2015,05,03,02,26,5.20
2015,05,03,02,27,5.20
2015,05,03,02,28,5.20
2015,05,03,02,29,5.20
2015,05,03,02,30,5.20
2015,05,03,02,31,5.10
2015,05,03,02,32,5.10
2015,05,03,02,33,5.10
2015,05,03,02,34,5.00
2015,05,03,02,35,5.00
2015,05,03,02,36,5.00
2015,05,03,02,37,5.00
2015,05,03,02,38,4.90
2015,05,03,02,39,4.90
2015,05,03,02,40,4.90
2015,05,03,02,41,4.90
2015,05,03,02,42,4.90
2015,05,03,02,43,4.90
2015,05,03,02,44,4.90
2015,05,03,02,45,4.90
2015,05,03,02,46,4.90
2015,05,03,02,47,4.90
2015,05,03,02,48,4.90
2015,05,03,02,49,4.90
2015,05,03,02,50,4.90
2015,05,03,02,51,4.90
2015,05,03,02,52,4.90
2015,05,03,02,53,4.90
2015,05,03,02,54,4.80
2015,05,03,02,55,4.80
2015,05,03,02,56,4.80
2015,05,03,02,57,4.80
2015,05,03,02,58,4.80
2015,05,03,02,59,4.80
2015,05,03,03,00,4.80
2015,05,03,03,01,4.80
2015,05,03,03,02,4.80
2015,05,03,03,03,4.80
2015,05,03,03,04,4.80
2015,05,03,03,05,4.80
2015,05,03,03,06,4.80
2015,05,03,03,07,4.80
2015,05,03,03,08,4.80
2015,05,03,03,09,4.80
2015,05,03,03,10,4.80
2015,05,03,03,11,4.80
2015,05,03,03,12,4.80
2015,05,03,03,13,4.80
2015,05,03,03,14,4.80
2015,05,03,03,15,4.80
2015,05,03,03,16,4.80
2015,05,03,03,17,4.70
2015,05,03,03,18,4.70
2015,05,03,03,19,4.70
2015,05,03,03,20,4.70
2015,05,03,03,21,4.70
2015,05,03,03,22,4.70
2015,05,03,03,23,4.70
2015,05,03,03,24,4.70
2015,05,03,03,25,4.70
2015,05,03,03,26,4.70
2015,05,03,03,27,4.70
2015,05,03,03,28,4.70
2015,05,03,03,29,4.70
2015,05,03,03,30,4.70
2015,05,03,03,31,4.70
2015,05,03,03,32,4.70
2015,05,03,03,33,4.70
2015,05,03,03,34,4.60
2015,05,03,03,35,4.60
2015,05,03,03,36,4.60
2015,05,03,03,37,4.60
2015,05,03,03,38,4.60
2015,05,03,03,39,4.60
2015,05,03,03,40,4.60
2015,05,03,03,41,4.60
2015,05,03,03,42,4.60
2015,05,03,03,43,4.60
2015,05,03,03,44,4.60
2015,05,03,03,45,4.60
2015,05,03,03,46,4.60
2015,05,03,03,47,4.50
2015,05,03,03,48,4.50
2015,05,03,03,49,4.50
2015,05,03,03,50,4.50
2015,05,03,03,51,4.50
2015,05,03,03,52,4.50
2015,05,03,03,53,4.50
2015,05,03,03,54,4.50
2015,05,03,03,55,4.50
2015,05,03,03,56,4.50
2015,05,03,03,57,4.50
2015,05,03,03,58,4.40
2015,05,03,03,59,4.40
2015,05,03,04,00,4.40
2015,05,03,04,01,4.40
2015,05,03,04,02,4.40
2015,05,03,04,03,4.30
2015,05,03,04,04,4.30
2015,05,03,04,05,4.30
2015,05,03,04,06,4.30
2015,05,03,04,07,4.30
2015,05,03,04,08,4.30
2015,05,03,04,09,4.30
2015,05,03,04,10,4.30
2015,05,03,04,11,4.30
2015,05,03,04,12,4.30
2015,05,03,04,13,4.30
2015,05,03,04,14,4.30
2015,05,03,04,15,4.30
2015,05,03,04,16,4.20
2015,05,03,04,17,4.20
2015,05,03,04,18,4.20
2015,05,03,04,19,4.20
2015,05,03,04,20,4.20
2015,05,03,04,21,4.20
2015,05,03,04,22,4.20
2015,05,03,04,23,4.20
2015,05,03,04,24,4.20
2015,05,03,04,25,4.20
2015,05,03,04,26,4.20
2015,05,03,04,27,4.10
2015,05,03,04,28,4.10
2015,05,03,04,29,4.10
2015,05,03,04,30,4.10
2015,05,03,04,31,4.10
2015,05,03,04,32,4.10
2015,05,03,04,33,4.10
2015,05,03,04,34,4.10
2015,05,03,04,35,4.10
2015,05,03,04,36,4.10
2015,05,03,04,37,4.00
2015,05,03,04,38,4.00
2015,05,03,04,39,4.00
2015,05,03,04,40,3.90
2015,05,03,04,41,3.90
2015,05,03,04,42,3.90
2015,05,03,04,43,3.90
2015,05,03,04,44,3.90
2015,05,03,04,45,3.90
2015,05,03,04,46,3.90
2015,05,03,04,47,3.90
2015,05,03,04,48,3.90
2015,05,03,04,49,3.90
2015,05,03,04,50,3.90
2015,05,03,04,51,3.90
2015,05,03,04,52,3.80
2015,05,03,04,53,3.90
2015,05,03,04,54,3.90
2015,05,03,04,55,3.80
2015,05,03,04,56,3.80
2015,05,03,04,57,3.80
2015,05,03,04,58,3.80
2015,05,03,04,59,3.80
2015,05,03,05,00,3.80
2015,05,03,05,01,3.80
2015,05,03,05,02,3.80
2015,05,03,05,03,3.80
2015,05,03,05,04,3.80
2015,05,03,05,05,3.80
2015,05,03,05,06,3.80
2015,05,03,05,07,3.80
2015,05,03,05,08,3.70
2015,05,03,05,09,3.70
2015,05,03,05,10,3.70
2015,05,03,05,11,3.70
2015,05,03,05,12,3.70
2015,05,03,05,13,3.70
2015,05,03,05,14,3.70
2015,05,03,05,15,3.70
2015,05,03,05,16,3.70
2015,05,03,05,17,3.70
2015,05,03,05,18,3.70
2015,05,03,05,19,3.70
2015,05,03,05,20,3.70
2015,05,03,05,21,3.70
2015,05,03,05,22,3.70
2015,05,03,05,23,3.70
2015,05,03,05,24,3.70
2015,05,03,05,25,3.60
2015,05,03,05,26,3.60
2015,05,03,05,27,3.60
2015,05,03,05,28,3.60
2015,05,03,05,29,3.60
2015,05,03,05,30,3.60
2015,05,03,05,31,3.60
2015,05,03,05,32,3.60
2015,05,03,05,33,3.60
2015,05,03,05,34,3.70
2015,05,03,05,35,3.70
2015,05,03,05,36,3.70
2015,05,03,05,37,3.70
2015,05,03,05,38,3.70
2015,05,03,05,39,3.70
2015,05,03,05,40,3.70
2015,05,03,05,41,3.60
2015,05,03,05,42,3.60
2015,05,03,05,43,3.60
2015,05,03,05,44,3.60
2015,05,03,05,45,3.60
2015,05,03,05,46,3.60
2015,05,03,05,47,3.60
2015,05,03,05,48,3.60
2015,05,03,05,49,3.60
2015,05,03,05,50,3.60
2015,05,03,05,51,3.60
2015,05,03,05,52,3.60
2015,05,03,05,53,3.60
2015,05,03,05,54,3.60
2015,05,03,05,55,3.60
2015,05,03,05,56,3.50
2015,05,03,05,57,3.50
2015,05,03,05,58,3.50
2015,05,03,05,59,3.50
2015,05,03,06,00,3.50
2015,05,03,06,01,3.50
2015,05,03,06,02,3.40
2015,05,03,06,03,3.40
2015,05,03,06,04,3.40
2015,05,03,06,05,3.40
2015,05,03,06,06,3.50
2015,05,03,06,07,3.40
2015,05,03,06,08,3.40
2015,05,03,06,09,3.40
2015,05,03,06,10,3.40
2015,05,03,06,11,3.40
2015,05,03,06,12,3.40
2015,05,03,06,13,3.40
2015,05,03,06,14,3.30
2015,05,03,06,15,3.30
2015,05,03,06,16,3.30
2015,05,03,06,17,3.30
2015,05,03,06,18,3.30
2015,05,03,06,19,3.30
2015,05,03,06,20,3.40
2015,05,03,06,21,3.40
2015,05,03,06,22,3.40
2015,05,03,06,23,3.40
2015,05,03,06,24,3.40
2015,05,03,06,25,3.40
2015,05,03,06,26,3.40
2015,05,03,06,27,3.40
2015,05,03,06,28,3.40
2015,05,03,06,29,3.40
2015,05,03,06,30,3.50
2015,05,03,06,31,3.50
2015,05,03,06,32,3.60
2015,05,03,06,33,3.60
2015,05,03,06,34,3.70
2015,05,03,06,35,3.70
2015,05,03,06,36,3.80
2015,05,03,06,37,3.80
2015,05,03,06,38,3.90
2015,05,03,06,39,4.00
2015,05,03,06,40,4.00
2015,05,03,06,41,4.10
2015,05,03,06,42,4.10
2015,05,03,06,43,4.20
2015,05,03,06,44,4.20
2015,05,03,06,45,4.30
2015,05,03,06,46,4.40
2015,05,03,06,47,4.50
2015,05,03,06,48,4.50
2015,05,03,06,49,4.60
2015,05,03,06,50,4.70
2015,05,03,06,51,4.70
2015,05,03,06,52,4.80
2015,05,03,06,53,4.90
2015,05,03,06,54,5.00
2015,05,03,06,55,5.10
2015,05,03,06,56,5.10
2015,05,03,06,57,5.20
2015,05,03,06,58,5.20
2015,05,03,06,59,5.30
2015,05,03,07,00,5.40
2015,05,03,07,01,5.40
2015,05,03,07,02,5.50
2015,05,03,07,03,5.60
2015,05,03,07,04,5.70
2015,05,03,07,05,5.80
2015,05,03,07,06,5.80
2015,05,03,07,07,5.90
2015,05,03,07,08,5.90
2015,05,03,07,09,6.00
2015,05,03,07,10,6.10
2015,05,03,07,11,6.20
2015,05,03,07,12,6.30
2015,05,03,07,13,6.30
2015,05,03,07,14,6.40
2015,05,03,07,15,6.50
2015,05,03,07,16,6.60
2015,05,03,07,17,6.70
2015,05,03,07,18,6.70
2015,05,03,07,19,6.80
2015,05,03,07,20,6.90
2015,05,03,07,21,7.00
2015,05,03,07,22,7.10
2015,05,03,07,23,7.20
2015,05,03,07,24,7.30
2015,05,03,07,25,7.40
2015,05,03,07,26,7.50
2015,05,03,07,27,7.60
2015,05,03,07,28,7.60
2015,05,03,07,29,7.70
2015,05,03,07,30,7.70
2015,05,03,07,31,7.70
2015,05,03,07,32,7.70
2015,05,03,07,33,7.80
2015,05,03,07,34,7.80
2015,05,03,07,35,7.80
2015,05,03,07,36,7.80
2015,05,03,07,37,7.90
2015,05,03,07,38,8.00
2015,05,03,07,39,8.20
2015,05,03,07,40,8.30
2015,05,03,07,41,8.40
2015,05,03,07,42,8.60
2015,05,03,07,43,8.70
2015,05,03,07,44,8.80
2015,05,03,07,45,8.90
2015,05,03,07,46,9.00
2015,05,03,07,47,9.10
2015,05,03,07,48,9.10
2015,05,03,07,49,9.20
2015,05,03,07,50,9.20
2015,05,03,07,51,9.30
2015,05,03,07,52,9.30
2015,05,03,07,53,9.30
2015,05,03,07,54,9.40
2015,05,03,07,55,9.50
2015,05,03,07,56,9.60
2015,05,03,07,57,9.80
2015,05,03,07,58,9.90
2015,05,03,07,59,10.00
2015,05,03,08,00,10.20
2015,05,03,08,01,10.30
2015,05,03,08,02,10.50
2015,05,03,08,03,10.60
2015,05,03,08,04,10.80
2015,05,03,08,05,10.90
2015,05,03,08,06,11.00
2015,05,03,08,07,11.20
2015,05,03,08,08,11.30
2015,05,03,08,09,11.40
2015,05,03,08,10,11.50
2015,05,03,08,11,11.60
2015,05,03,08,12,11.60
2015,05,03,08,13,11.70
2015,05,03,08,14,11.80
2015,05,03,08,15,11.90
2015,05,03,08,16,12.00
2015,05,03,08,17,12.10
2015,05,03,08,18,12.20
2015,05,03,08,19,12.20
2015,05,03,08,20,12.30
2015,05,03,08,21,12.30
2015,05,03,08,22,12.40
2015,05,03,08,23,12.50
2015,05,03,08,24,12.50
2015,05,03,08,25,12.60
2015,05,03,08,26,12.70
2015,05,03,08,27,12.70
2015,05,03,08,28,12.70
2015,05,03,08,29,12.70
2015,05,03,08,30,12.60
2015,05,03,08,31,12.50
2015,05,03,08,32,12.50
2015,05,03,08,33,12.40
2015,05,03,08,34,12.40
2015,05,03,08,35,12.30
2015,05,03,08,36,12.30
2015,05,03,08,37,12.30
2015,05,03,08,38,12.30
2015,05,03,08,39,12.30
2015,05,03,08,40,12.40
2015,05,03,08,41,12.40
2015,05,03,08,42,12.50
2015,05,03,08,43,12.50
2015,05,03,08,44,12.50
2015,05,03,08,45,12.60
2015,05,03,08,46,12.60
2015,05,03,08,47,12.60
2015,05,03,08,48,12.60
2015,05,03,08,49,12.60
2015,05,03,08,50,12.70
2015,05,03,08,51,12.70
2015,05,03,08,52,12.70
2015,05,03,08,53,12.70
2015,05,03,08,54,12.70
2015,05,03,08,55,12.70
2015,05,03,08,56,12.80
2015,05,03,08,57,12.80
2015,05,03,08,58,12.90
2015,05,03,08,59,13.00
2015,05,03,09,00,13.00
2015,05,03,09,01,13.10
2015,05,03,09,02,13.10
2015,05,03,09,03,13.10
2015,05,03,09,04,13.20
2015,05,03,09,05,13.20
2015,05,03,09,06,13.20
2015,05,03,09,07,13.30
2015,05,03,09,08,13.40
2015,05,03,09,09,13.40
2015,05,03,09,10,13.50
2015,05,03,09,11,13.50
2015,05,03,09,12,13.60
2015,05,03,09,13,13.70
2015,05,03,09,14,13.80
2015,05,03,09,15,13.80
2015,05,03,09,16,13.70
2015,05,03,09,17,13.70
2015,05,03,09,18,13.60
2015,05,03,09,19,13.60
2015,05,03,09,20,13.50
2015,05,03,09,21,13.50
2015,05,03,09,22,13.50
2015,05,03,09,23,13.40
2015,05,03,09,24,13.40
2015,05,03,09,25,13.30
2015,05,03,09,26,13.30
2015,05,03,09,27,13.40
2015,05,03,09,28,13.40
2015,05,03,09,29,13.40
2015,05,03,09,30,13.40
2015,05,03,09,31,13.40
2015,05,03,09,32,13.40
2015,05,03,09,33,13.30
2015,05,03,09,34,13.30
2015,05,03,09,35,13.30
2015,05,03,09,36,13.30
2015,05,03,09,37,13.30
2015,05,03,09,38,13.40
2015,05,03,09,39,13.40
2015,05,03,09,40,13.40
2015,05,03,09,41,13.40
2015,05,03,09,42,13.40
2015,05,03,09,43,13.50
2015,05,03,09,44,13.50
2015,05,03,09,45,13.60
2015,05,03,09,46,13.60
2015,05,03,09,47,13.70
2015,05,03,09,48,13.70
2015,05,03,09,49,13.70
2015,05,03,09,50,13.70
2015,05,03,09,51,13.70
2015,05,03,09,52,13.70
2015,05,03,09,53,13.80
2015,05,03,09,54,13.80
2015,05,03,09,55,13.80
2015,05,03,09,56,13.80
2015,05,03,09,57,13.80
2015,05,03,09,58,13.90
2015,05,03,09,59,13.90
2015,05,03,10,00,13.90
2015,05,03,10,01,13.90
2015,05,03,10,02,13.90
2015,05,03,10,03,13.90
2015,05,03,10,04,14.00
2015,05,03,10,05,14.10
2015,05,03,10,06,14.10
2015,05,03,10,07,14.10
2015,05,03,10,08,14.20
2015,05,03,10,09,14.20
2015,05,03,10,10,14.20
2015,05,03,10,11,14.20
2015,05,03,10,12,14.20
2015,05,03,10,13,14.20
2015,05,03,10,14,14.20
2015,05,03,10,15,14.20
2015,05,03,10,16,14.20
2015,05,03,10,17,14.20
2015,05,03,10,18,14.20
2015,05,03,10,19,14.30
2015,05,03,10,20,14.40
2015,05,03,10,21,14.40
2015,05,03,10,22,14.40
2015,05,03,10,23,14.40
2015,05,03,10,24,14.40
2015,05,03,10,25,14.40
2015,05,03,10,26,14.50
2015,05,03,10,27,14.50
2015,05,03,10,28,14.60
2015,05,03,10,29,14.70
2015,05,03,10,30,14.70
2015,05,03,10,31,14.80
2015,05,03,10,32,14.90
2015,05,03,10,33,15.00
2015,05,03,10,34,15.10
2015,05,03,10,35,15.10
2015,05,03,10,36,15.20
2015,05,03,10,37,15.20
2015,05,03,10,38,15.30
2015,05,03,10,39,15.30
2015,05,03,10,40,15.40
2015,05,03,10,41,15.40
2015,05,03,10,42,15.50
2015,05,03,10,43,15.50
2015,05,03,10,44,15.50
2015,05,03,10,45,15.40
2015,05,03,10,46,15.40
2015,05,03,10,47,15.30
2015,05,03,10,48,15.30
2015,05,03,10,49,15.30
2015,05,03,10,50,15.30
2015,05,03,10,51,15.30
2015,05,03,10,52,15.30
2015,05,03,10,53,15.40
2015,05,03,10,54,15.40
2015,05,03,10,55,15.40
2015,05,03,10,56,15.40
2015,05,03,10,57,15.50
2015,05,03,10,58,15.60
2015,05,03,10,59,15.70
2015,05,03,11,00,15.80
2015,05,03,11,01,15.80
2015,05,03,11,02,15.70
2015,05,03,11,03,15.50
2015,05,03,11,04,15.50
2015,05,03,11,05,15.40
2015,05,03,11,06,15.40
2015,05,03,11,07,15.40
2015,05,03,11,08,15.50
2015,05,03,11,09,15.50
2015,05,03,11,10,15.50
2015,05,03,11,11,15.60
2015,05,03,11,12,15.60
2015,05,03,11,13,15.70
2015,05,03,11,14,15.80
2015,05,03,11,15,15.80
2015,05,03,11,16,15.70
2015,05,03,11,17,15.80
2015,05,03,11,18,15.90
2015,05,03,11,19,16.00
2015,05,03,11,20,16.10
2015,05,03,11,21,16.20
2015,05,03,11,22,16.30
2015,05,03,11,23,16.30
2015,05,03,11,24,16.30
2015,05,03,11,25,16.40
2015,05,03,11,26,16.50
2015,05,03,11,27,16.60
2015,05,03,11,28,16.70
2015,05,03,11,29,16.80
2015,05,03,11,30,16.80
2015,05,03,11,31,16.70
2015,05,03,11,32,16.60
2015,05,03,11,33,16.50
2015,05,03,11,34,16.40
2015,05,03,11,35,16.40
2015,05,03,11,36,16.40
2015,05,03,11,37,16.50
2015,05,03,11,38,16.60
2015,05,03,11,39,16.50
2015,05,03,11,40,16.40
2015,05,03,11,41,16.40
2015,05,03,11,42,16.40
2015,05,03,11,43,16.40
2015,05,03,11,44,16.40
2015,05,03,11,45,16.40
2015,05,03,11,46,16.40
2015,05,03,11,47,16.40
2015,05,03,11,48,16.50
2015,05,03,11,49,16.50
2015,05,03,11,50,16.70
2015,05,03,11,51,16.80
2015,05,03,11,52,16.90
2015,05,03,11,53,17.00
2015,05,03,11,54,17.00
2015,05,03,11,55,17.10
2015,05,03,11,56,17.00
2015,05,03,11,57,16.90
2015,05,03,11,58,16.80
2015,05,03,11,59,16.80
2015,05,03,12,00,16.80
2015,05,03,12,01,16.80
2015,05,03,12,02,16.80
2015,05,03,12,03,16.90
2015,05,03,12,04,16.90
2015,05,03,12,05,16.90
2015,05,03,12,06,17.00
2015,05,03,12,07,17.10
2015,05,03,12,08,17.10
2015,05,03,12,09,17.00
2015,05,03,12,10,16.90
2015,05,03,12,11,16.80
2015,05,03,12,12,16.70
2015,05,03,12,13,16.60
2015,05,03,12,14,16.60
2015,05,03,12,15,16.60
2015,05,03,12,16,16.60
2015,05,03,12,17,16.60
2015,05,03,12,18,16.70
2015,05,03,12,19,16.70
2015,05,03,12,20,16.70
2015,05,03,12,21,16.60
2015,05,03,12,22,16.60
2015,05,03,12,23,16.60
2015,05,03,12,24,16.60
2015,05,03,12,25,16.60
2015,05,03,12,26,16.60
2015,05,03,12,27,16.60
2015,05,03,12,28,16.60
2015,05,03,12,29,16.70
2015,05,03,12,30,16.70
2015,05,03,12,31,16.70
2015,05,03,12,32,16.80
2015,05,03,12,33,16.80
2015,05,03,12,34,16.90
2015,05,03,12,35,17.00
2015,05,03,12,36,17.10
2015,05,03,12,37,17.10
2015,05,03,12,38,17.20
2015,05,03,12,39,17.20
2015,05,03,12,40,17.30
2015,05,03,12,41,17.30
2015,05,03,12,42,17.30
2015,05,03,12,43,17.30
2015,05,03,12,44,17.20
2015,05,03,12,45,17.30
2015,05,03,12,46,17.30
2015,05,03,12,47,17.30
2015,05,03,12,48,17.30
2015,05,03,12,49,17.20
2015,05,03,12,50,17.20
2015,05,03,12,51,17.20
2015,05,03,12,52,17.20
2015,05,03,12,53,17.20
2015,05,03,12,54,17.30
2015,05,03,12,55,17.30
2015,05,03,12,56,17.30
2015,05,03,12,57,17.30
2015,05,03,12,58,17.20
2015,05,03,12,59,17.20
2015,05,03,13,00,17.20
2015,05,03,13,01,17.20
2015,05,03,13,02,17.20
2015,05,03,13,03,17.30
2015,05,03,13,04,17.30
2015,05,03,13,05,17.40
2015,05,03,13,06,17.40
2015,05,03,13,07,17.50
2015,05,03,13,08,17.50
2015,05,03,13,09,17.40
2015,05,03,13,10,17.30
2015,05,03,13,11,17.30
2015,05,03,13,12,17.30
2015,05,03,13,13,17.30
2015,05,03,13,14,17.40
2015,05,03,13,15,17.40
2015,05,03,13,16,17.40
2015,05,03,13,17,17.40
2015,05,03,13,18,17.40
2015,05,03,13,19,17.40
2015,05,03,13,20,17.40
2015,05,03,13,21,17.40
2015,05,03,13,22,17.40
2015,05,03,13,23,17.50
2015,05,03,13,24,17.60
2015,05,03,13,25,17.70
2015,05,03,13,26,17.80
2015,05,03,13,27,17.80
2015,05,03,13,28,17.80
2015,05,03,13,29,17.80
2015,05,03,13,30,17.80
2015,05,03,13,31,17.80
2015,05,03,13,32,17.80
2015,05,03,13,33,17.80
2015,05,03,13,34,17.70
2015,05,03,13,35,17.60
2015,05,03,13,36,17.50
2015,05,03,13,37,17.50
2015,05,03,13,38,17.40
2015,05,03,13,39,17.30
2015,05,03,13,40,17.30
2015,05,03,13,41,17.40
2015,05,03,13,42,17.50
2015,05,03,13,43,17.60
2015,05,03,13,44,17.60
2015,05,03,13,45,17.70
2015,05,03,13,46,17.70
2015,05,03,13,47,17.70
2015,05,03,13,48,17.70
2015,05,03,13,49,17.70
2015,05,03,13,50,17.60
2015,05,03,13,51,17.60
2015,05,03,13,52,17.60
2015,05,03,13,53,17.60
2015,05,03,13,54,17.50
2015,05,03,13,55,17.50
2015,05,03,13,56,17.60
2015,05,03,13,57,17.60
2015,05,03,13,58,17.60
2015,05,03,13,59,17.60
2015,05,03,14,00,17.50
2015,05,03,14,01,17.50
2015,05,03,14,02,17.40
2015,05,03,14,03,17.40
2015,05,03,14,04,17.30
2015,05,03,14,05,17.30
2015,05,03,14,06,17.30
2015,05,03,14,07,17.30
2015,05,03,14,08,17.30
2015,05,03,14,09,17.30
2015,05,03,14,10,17.30
2015,05,03,14,11,17.30
2015,05,03,14,12,17.30
2015,05,03,14,13,17.30
2015,05,03,14,14,17.30
2015,05,03,14,15,17.20
2015,05,03,14,16,17.20
2015,05,03,14,17,17.20
2015,05,03,14,18,17.20
2015,05,03,14,19,17.30
2015,05,03,14,20,17.40
2015,05,03,14,21,17.40
2015,05,03,14,22,17.50
2015,05,03,14,23,17.50
2015,05,03,14,24,17.40
2015,05,03,14,25,17.40
2015,05,03,14,26,17.40
2015,05,03,14,27,17.50
2015,05,03,14,28,17.50
2015,05,03,14,29,17.50
2015,05,03,14,30,17.50
2015,05,03,14,31,17.50
2015,05,03,14,32,17.40
2015,05,03,14,33,17.40
2015,05,03,14,34,17.40
2015,05,03,14,35,17.50
2015,05,03,14,36,17.50
2015,05,03,14,37,17.50
2015,05,03,14,38,17.60
2015,05,03,14,39,17.60
2015,05,03,14,40,17.50
2015,05,03,14,41,17.40
2015,05,03,14,42,17.30
2015,05,03,14,43,17.30
2015,05,03,14,44,17.30
2015,05,03,14,45,17.30
2015,05,03,14,46,17.30
2015,05,03,14,47,17.40
2015,05,03,14,48,17.40
2015,05,03,14,49,17.40
2015,05,03,14,50,17.50
2015,05,03,14,51,17.50
2015,05,03,14,52,17.50
2015,05,03,14,53,17.50
2015,05,03,14,54,17.60
2015,05,03,14,55,17.80
2015,05,03,14,56,17.90
2015,05,03,14,57,18.00
2015,05,03,14,58,18.00
2015,05,03,14,59,18.00
2015,05,03,15,00,17.90
2015,05,03,15,01,17.90
2015,05,03,15,02,17.90
2015,05,03,15,03,17.90
2015,05,03,15,04,17.90
2015,05,03,15,05,17.80
2015,05,03,15,06,17.80
2015,05,03,15,07,17.80
2015,05,03,15,08,17.80
2015,05,03,15,09,17.70
2015,05,03,15,10,17.60
2015,05,03,15,11,17.60
2015,05,03,15,12,17.50
2015,05,03,15,13,17.40
2015,05,03,15,14,17.30
2015,05,03,15,15,17.30
2015,05,03,15,16,17.30
2015,05,03,15,17,17.30
2015,05,03,15,18,17.30
2015,05,03,15,19,17.30
2015,05,03,15,20,17.40
2015,05,03,15,21,17.40
2015,05,03,15,22,17.50
2015,05,03,15,23,17.60
2015,05,03,15,24,17.70
2015,05,03,15,25,17.80
2015,05,03,15,26,17.90
2015,05,03,15,27,18.00
2015,05,03,15,28,18.10
2015,05,03,15,29,18.20
2015,05,03,15,30,18.30
2015,05,03,15,31,18.30
2015,05,03,15,32,18.20
2015,05,03,15,33,18.10
2015,05,03,15,34,18.00
2015,05,03,15,35,17.90
2015,05,03,15,36,17.80
2015,05,03,15,37,17.80
2015,05,03,15,38,17.80
2015,05,03,15,39,17.90
2015,05,03,15,40,18.00
2015,05,03,15,41,18.20
2015,05,03,15,42,18.20
2015,05,03,15,43,18.30
2015,05,03,15,44,18.30
2015,05,03,15,45,18.30
2015,05,03,15,46,18.30
2015,05,03,15,47,18.30
2015,05,03,15,48,18.30
2015,05,03,15,49,18.30
2015,05,03,15,50,18.30
2015,05,03,15,51,18.40
2015,05,03,15,52,18.40
2015,05,03,15,53,18.40
2015,05,03,15,54,18.40
2015,05,03,15,55,18.30
2015,05,03,15,56,18.30
2015,05,03,15,57,18.10
2015,05,03,15,58,18.00
2015,05,03,15,59,17.90
2015,05,03,16,00,17.80
2015,05,03,16,01,17.80
2015,05,03,16,02,17.70
2015,05,03,16,03,17.60
2015,05,03,16,04,17.60
2015,05,03,16,05,17.60
2015,05,03,16,06,17.60
2015,05,03,16,07,17.60
2015,05,03,16,08,17.60
2015,05,03,16,09,17.70
2015,05,03,16,10,17.80
2015,05,03,16,11,17.90
2015,05,03,16,12,18.10
2015,05,03,16,13,18.30
2015,05,03,16,14,18.30
2015,05,03,16,15,18.30
2015,05,03,16,16,18.30
2015,05,03,16,17,18.30
2015,05,03,16,18,18.30
2015,05,03,16,19,18.40
2015,05,03,16,20,18.40
2015,05,03,16,21,18.50
2015,05,03,16,22,18.50
2015,05,03,16,23,18.60
2015,05,03,16,24,18.60
2015,05,03,16,25,18.60
2015,05,03,16,26,18.50
2015,05,03,16,27,18.50
2015,05,03,16,28,18.50
2015,05,03,16,29,18.60
2015,05,03,16,30,18.60
2015,05,03,16,31,18.60
2015,05,03,16,32,18.60
2015,05,03,16,33,18.60
2015,05,03,16,34,18.60
2015,05,03,16,35,18.60
2015,05,03,16,36,18.70
2015,05,03,16,37,18.70
2015,05,03,16,38,18.70
2015,05,03,16,39,18.60
2015,05,03,16,40,18.60
2015,05,03,16,41,18.50
2015,05,03,16,42,18.40
2015,05,03,16,43,18.40
2015,05,03,16,44,18.40
2015,05,03,16,45,18.50
2015,05,03,16,46,18.60
2015,05,03,16,47,18.60
2015,05,03,16,48,18.60
2015,05,03,16,49,18.70
2015,05,03,16,50,18.70
2015,05,03,16,51,18.60
2015,05,03,16,52,18.50
2015,05,03,16,53,18.40
2015,05,03,16,54,18.30
2015,05,03,16,55,18.20
2015,05,03,16,56,18.20
2015,05,03,16,57,18.10
2015,05,03,16,58,18.10
2015,05,03,16,59,18.10
2015,05,03,17,00,18.20
2015,05,03,17,01,18.20
2015,05,03,17,02,18.30
2015,05,03,17,03,18.30
2015,05,03,17,04,18.30
2015,05,03,17,05,18.30
2015,05,03,17,06,18.40
2015,05,03,17,07,18.30
2015,05,03,17,08,18.30
2015,05,03,17,09,18.30
2015,05,03,17,10,18.30
2015,05,03,17,11,18.20
2015,05,03,17,12,18.20
2015,05,03,17,13,18.20
2015,05,03,17,14,18.20
2015,05,03,17,15,18.20
2015,05,03,17,16,18.20
2015,05,03,17,17,18.10
2015,05,03,17,18,18.10
2015,05,03,17,19,18.20
2015,05,03,17,20,18.20
2015,05,03,17,21,18.30
2015,05,03,17,22,18.30
2015,05,03,17,23,18.40
2015,05,03,17,24,18.40
2015,05,03,17,25,18.40
2015,05,03,17,26,18.50
2015,05,03,17,27,18.50
2015,05,03,17,28,18.60
2015,05,03,17,29,18.60
2015,05,03,17,30,18.70
2015,05,03,17,31,18.70
2015,05,03,17,32,18.70
2015,05,03,17,33,18.70
2015,05,03,17,34,18.80
2015,05,03,17,35,18.80
2015,05,03,17,36,18.90
2015,05,03,17,37,18.90
2015,05,03,17,38,18.80
2015,05,03,17,39,18.70
2015,05,03,17,40,18.70